This demonstration page uses our WeatherBlox Daily Observations layout. Learn more.

Left ArrowRight Arrow

Hourly Observations for May 17, 2020

Temp ( °F °C ) Dew Point ( °F °C ) Humidity (%) Winds ( mph kmh ) Pressure ( in mb ) Visibility ( mi km ) Precip ( " mm )
12:15 am 00:15 Partly Cloudy 52 10.9 49 9.3 90 90 NNW 8 13 30 1016 10 16.0934 0 0
12:35 am 00:35 Clear 51 10.6 49 9.2 91 91 NW 7 11 30.01 1016 10 16.0934 0 0
12:55 am 00:55 Partly Cloudy 51 10.6 49 9.4 92 92 NW 6 9 30.02 1017 10 16.0934 0 0
1:15 am 01:15 Cloudy 52 11.2 50 10 92 92 NW 6 9 30.01 1016 10 16.0934 0 0
1:35 am 01:35 Cloudy 53 11.7 51 10.5 92 92 NNW 6 9 30.01 1016 10 16.0934 0 0
1:55 am 01:55 Mostly Cloudy 53 11.5 49 9.7 89 89 NNW 7 11 30.01 1016 10 16.0934 0 0
2:15 am 02:15 Mostly Cloudy 52 11.2 49 9.7 91 91 NNW 6 9 30.01 1016 10 16.0934 0 0
2:35 am 02:35 Cloudy 52 11.2 50 10 92 92 NNW 8 13 30.01 1016 10 16.0934 0 0
2:55 am 02:55 Cloudy 52 11.3 50 9.8 91 91 NW 7 11 30.01 1016 10 16.0934 0 0
3:15 am 03:15 Cloudy 52 11.1 49 9.7 91 91 WNW 8 13 30.01 1016 10 16.0934 0 0
3:35 am 03:35 Cloudy 51 10.7 49 9.3 91 91 WNW 9 15 30.02 1016 10 16.0934 0 0
3:55 am 03:55 Cloudy 51 10.6 48 9.1 91 91 WNW 9 15 30.02 1017 10 16.0934 0 0
4:15 am 04:15 Cloudy 51 10.8 49 9.2 90 90 NW 10 17 30.03 1017 10 16.0934 0 0
4:35 am 04:35 Cloudy 52 11.1 49 9.3 89 89 NW 10 17 30.02 1017 10 16.0934 0 0
4:55 am 04:55 Cloudy 52 11 49 9.2 89 89 NW 8 13 30.03 1017 10 16.0934 0 0
5:15 am 05:15 Cloudy 51 10.6 48 9.1 91 91 NW 9 15 30.03 1017 10 16.0934 0 0
5:35 am 05:35 Cloudy 51 10.5 48 9 91 91 NW 9 15 30.04 1017 10 16.0934 0 0
5:55 am 05:55 Cloudy 51 10.5 48 9 91 91 NW 10 17 30.04 1017 10 16.0934 0 0
6:15 am 06:15 Cloudy 51 10.5 48 9 91 91 NW 10 17 30.03 1017 10 16.0934 0 0
6:35 am 06:35 Cloudy 51 10.5 48 9 91 91 NW 10 17 30.03 1017 10 16.0934 0 0
6:55 am 06:55 Mostly Cloudy 51 10.5 48 9 91 91 NW 10 17 30.04 1017 10 16.0934 0 0
7:15 am 07:15 Mostly Cloudy 51 10.5 48 9.1 91 91 NW 14 22 30.04 1017 10 16.0934 0 0
7:35 am 07:35 Cloudy 52 10.9 49 9.5 91 91 NW 14 22 30.04 1017 10 16.0934 0 0
7:55 am 07:55 Cloudy 51 10.7 48 9.1 90 90 NW 14 22 30.05 1017 10 16.0934 0 0
8:15 am 08:15 Mostly Cloudy 52 11.1 49 9.3 89 89 NW 15 24 30.05 1018 10 16.0934 0 0
8:35 am 08:35 Cloudy 53 11.8 49 9.5 86 86 NW 14 22 30.05 1018 10 16.0934 0 0
8:55 am 08:55 Mostly Cloudy 54 12 49 9.5 85 85 NNW 16 26 30.05 1017 10 16.0934 0 0
9:15 am 09:15 Cloudy 55 12.7 50 9.9 83 83 NNW 12 19 30.05 1018 10 16.0934 0 0
9:35 am 09:35 Mostly Cloudy 56 13.5 48 9 74 74 NNW 16 26 30.04 1017 10 16.0934 0 0
9:55 am 09:55 Mostly Cloudy 57 14.1 49 9.7 75 75 NW 15 24 30.04 1017 10 16.0934 0 0
10:15 am 10:15 Cloudy 56 13.2 48 8.8 75 75 NNW 14 22 30.04 1017 10 16.0934 0 0
10:35 am 10:35 Mostly Cloudy 58 14.2 48 8.9 71 71 NNW 16 26 30.04 1017 10 16.0934 0 0
10:55 am 10:55 Cloudy 57 13.8 47 8.1 69 69 NW 10 17 30.04 1017 10 16.0934 0 0
11:15 am 11:15 Cloudy 57 13.9 47 8.2 69 69 NNW 14 22 30.04 1017 10 16.0934 0 0
11:35 am 11:35 Cloudy 57 14 47 8.3 69 69 NW 13 20 30.04 1017 10 16.0934 0 0
11:55 am 11:55 Cloudy 57 14.1 47 8.4 69 69 NNW 14 22 30.04 1017 10 16.0934 0 0
12:15 pm 12:15 Cloudy 57 14 47 8.1 68 68 NNW 14 22 30.04 1017 10 16.0934 0 0
12:35 pm 12:35 Cloudy 59 14.8 46 8 64 64 NW 15 24 30.03 1017 10 16.0934 0 0
12:55 pm 12:55 Cloudy 59 14.8 46 7.9 64 64 NW 13 20 30.02 1017 10 16.0934 0 0
1:15 pm 13:15 Cloudy 59 15.2 46 7.8 62 62 NW 13 20 30.02 1017 10 16.0934 0 0
1:35 pm 13:35 Cloudy 60 15.3 46 8 62 62 NNW 15 24 30.02 1016 10 16.0934 0 0
1:55 pm 13:55 Cloudy 60 15.4 46 7.6 60 60 N 12 19 30.02 1016 10 16.0934 0 0
2:15 pm 14:15 Cloudy 60 15.8 47 8.1 60 60 N 12 19 29.99 1016 10 16.0934 0 0
2:35 pm 14:35 Cloudy 61 16.1 46 8 59 59 N 15 24 30 1016 10 16.0934 0 0
2:55 pm 14:55 Partly Cloudy 62 16.6 46 7.6 56 56 N 15 24 29.99 1015 10 16.0934 0 0
3:15 pm 15:15 Partly Cloudy 63 17.1 46 8 55 55 NNW 16 26 29.97 1015 10 16.0934 0 0
3:35 pm 15:35 Sunny 63 17.1 46 7.6 54 54 NNW 14 22 29.97 1015 10 16.0934 0 0
3:55 pm 15:55 Partly Cloudy 63 17.2 46 7.8 54 54 NNW 9 15 29.96 1015 10 16.0934 0 0
4:15 pm 16:15 Partly Cloudy 64 17.5 46 7.7 53 53 NW 12 19 29.96 1014 10 16.0934 0 0
4:35 pm 16:35 Mostly Cloudy 64 17.9 46 7.9 52 52 NNW 10 17 29.94 1014 10 16.0934 0 0
4:55 pm 16:55 Mostly Cloudy 64 17.7 47 8.1 54 54 NNW 15 24 29.95 1014 10 16.0934 0 0
5:15 pm 17:15 Partly Cloudy 64 17.8 46 7.8 52 52 N 14 22 29.94 1014 10 16.0934 0 0
5:35 pm 17:35 Partly Cloudy 64 18 46 7.8 52 52 NNW 14 22 29.93 1014 10 16.0934 0 0
5:55 pm 17:55 Mostly Cloudy 64 18 47 8.1 53 53 N 16 26 29.94 1014 10 16.0934 0 0
6:15 pm 18:15 Mostly Cloudy 63 17.4 46 8 54 54 N 15 24 29.96 1015 10 16.0934 0 0
6:35 pm 18:35 Partly Cloudy 63 17.2 46 7.7 54 54 N 14 22 29.96 1015 10 16.0934 0 0
6:55 pm 18:55 Mostly Cloudy 63 17.4 47 8.4 56 56 N 22 35 29.96 1015 10 16.0934 0 0
7:15 pm 19:15 Cloudy 61 16 47 8.3 60 60 N 17 28 29.97 1015 10 16.0934 0 0
7:35 pm 19:35 Cloudy 60 15.8 45 7.4 58 58 N 14 22 29.99 1016 10 16.0934 0 0
7:55 pm 19:55 Cloudy 60 15.3 46 7.8 61 61 N 14 22 30 1016 10 16.0934 0 0
8:15 pm 20:15 Cloudy 59 15 46 8 63 63 N 12 19 30 1016 10 16.0934 0 0
8:35 pm 20:35 Partly Cloudy 57 14 47 8.5 70 70 N 6 9 30.01 1016 10 16.0934 0 0
8:55 pm 20:55 Mostly Cloudy 56 13.5 48 8.7 73 73 NNW 6 9 30.01 1016 10 16.0934 0 0
9:15 pm 21:15 Cloudy 56 13.5 48 9 74 74 NNW 6 9 30.02 1017 10 16.0934 0 0
9:35 pm 21:35 Partly Cloudy 55 12.7 48 8.7 77 77 NW 5 7 30.03 1017 10 16.0934 0 0
9:55 pm 21:55 Clear 54 12 48 8.7 80 80 NNW 6 9 30.05 1017 10 16.0934 0 0
10:15 pm 22:15 Clear 53 11.9 47 8.5 80 80 NNW 6 9 30.05 1017 10 16.0934 0 0
10:35 pm 22:35 Clear 53 11.8 47 8.5 80 80 NNW 6 9 30.06 1018 10 16.0934 0 0
10:55 pm 22:55 Clear 53 11.4 47 8.2 81 81 NW 6 9 30.06 1018 10 16.0934 0 0
11:15 pm 23:15 Clear 51 10.5 47 8.2 86 86 NNW 6 9 30.06 1018 10 16.0934 0 0
11:35 pm 23:35 Clear 50 9.9 46 8 88 88 NW 5 7 30.06 1018 10 16.0934 0 0
11:55 pm 23:55 Clear 49 9.6 46 8 90 90 NW 6 9 30.07 1018 10 16.0934 0 0

Powered by AerisWeather